Overview Statistics Trail Chart Weather Telemetry Raw packets
 

This is the latest recevied weather packets stored in our database for station/object N0KWA. If no packets are shown the sender has not sent any weather packets the latest 10 day(s).

<< 59 60 61 62 63 64 65 >>
Time Temp. Humidity Pressure Rain* Wind** Luminosity Snow
1788017064 29.44° C 81% 1019.8 hPa 0 mm - 21 W/m² -
1788016763 28.89° C 80% 1019.5 hPa 0 mm - 20 W/m² -
1788016461 28.89° C 80% 1019.7 hPa 0 mm - 21 W/m² -
1788016156 28.89° C 82% 1019.5 hPa 0 mm - 19 W/m² -
1788015854 28.33° C 83% 1019.5 hPa 0 mm - 18 W/m² -
1788015549 28.33° C 83% 1019.6 hPa 0 mm - 18 W/m² -
1788015243 28.33° C 86% 1019.6 hPa 0 mm - 17 W/m² -
1788014943 27.78° C 86% 1019.4 hPa 0 mm - 25 W/m² -
1788014638 27.78° C 87% 1019.3 hPa 0 mm - 16 W/m² -
1788014332 27.78° C 88% 1019.4 hPa 0 mm - 16 W/m² -
1788014027 27.22° C 87% 1019.4 hPa 0 mm - 15 W/m² -
1788013721 27.22° C 90% 1019.5 hPa 0 mm - 14 W/m² -
1788013421 27.22° C 90% 1019.4 hPa 0 mm - 14 W/m² -
1788013121 26.67° C 91% 1019.3 hPa 0 mm - 13 W/m² -
1788012820 26.67° C 92% 1019.5 hPa 0 mm - 16 W/m² -
1788012515 26.67° C 94% 1019.5 hPa 0 mm - 13 W/m² -
1788012215 26.11° C 94% 1019.5 hPa 0 mm - 13 W/m² -
1788011922 26.11° C 95% 1019.6 hPa 0 mm - 12 W/m² -
1788011612 26.11° C 97% 1019.3 hPa 0 mm - 12 W/m² -
1788011309 25.56° C 96% 1019.4 hPa 0 mm - 12 W/m² -
1788011007 25.56° C 98% 1019.4 hPa 0 mm - 12 W/m² -
1788010703 25.56° C 99% 1019.6 hPa 0 mm - 11 W/m² -
1788010401 25° C 99% 1019.6 hPa 0 mm - 11 W/m² -
1788010096 25° C 99% 1019.4 hPa 0 mm - 11 W/m² -
1788009791 25° C 99% 1019.5 hPa 0 mm - 10 W/m² -

* Rain latest hour (hover to see other rain measurements)
** Current wind speed in m/s (hover to see current wind gust speed)